| time (UTC) | temp F | wind direction | speed MPH | gust MPH | rain 1hr in | rain 24hr in | rain mn in | humidity % | barometer mb |
| 20260508080026 | 57 | 255 | 2.0 | 4.0 | 0.00 | 0.05 | 0.00 | 88 | 1013.9 |
| 20260508075021 | 57 | 261 | 2.0 | 4.0 | 0.00 | 0.05 | 0.00 | 87 | 1013.7 |
| 20260508074115 | 57 | 261 | 3.0 | 6.0 | 0.00 | 0.05 | 0.00 | 87 | 1013.7 |
| 20260508073110 | 57 | 304 | 2.0 | 4.0 | 0.00 | 0.05 | 0.00 | 88 | 1013.7 |
| 20260508072126 | 57 | 315 | 2.0 | 6.0 | 0.00 | 0.05 | 0.00 | 88 | 1013.3 |
| 20260508071059 | 57 | 273 | 3.0 | 4.0 | 0.00 | 0.05 | 0.00 | 87 | 1013.4 |
| 20260508070054 | 57 | 281 | 3.0 | 4.0 | 0.00 | 0.05 | 0.00 | 87 | 1013.3 |
| 20260508065049 | 58 | 270 | 3.0 | 6.0 | 0.00 | 0.05 | 0.00 | 86 | 1013.3 |
| 20260508064044 | 57 | 295 | 2.0 | 4.0 | 0.00 | 0.05 | 0.00 | 87 | 1013.0 |
| 20260508063038 | 57 | 272 | 2.0 | 4.0 | 0.00 | 0.05 | 0.00 | 88 | 1013.0 |
| 20260508062032 | 56 | 261 | 2.0 | 4.0 | 0.00 | 0.05 | 0.00 | 90 | 1013.2 |
| 20260508061048 | 55 | 252 | 2.0 | 4.0 | 0.00 | 0.05 | 0.00 | 90 | 1013.0 |
| 20260508060022 | 55 | 262 | 2.0 | 4.0 | 0.00 | 0.05 | 0.00 | 91 | 1012.9 |
| 20260508055017 | 54 | 310 | 2.0 | 4.0 | 0.00 | 0.05 | 0.00 | 91 | 1012.5 |
| 20260508054132 | 54 | 282 | 2.0 | 4.0 | 0.00 | 0.05 | 0.00 | 91 | 1012.6 |
| 20260508053107 | 54 | 293 | 2.0 | 4.0 | 0.00 | 0.05 | 0.00 | 91 | 1012.4 |
| 20260508052122 | 54 | 312 | 1.0 | 2.0 | 0.00 | 0.05 | 0.00 | 92 | 1012.5 |
| 20260508051056 | 55 | 0.0 | 0.0 | 0.00 | 0.05 | 0.00 | 93 | 1012.6 | |
| 20260508050051 | 54 | 315 | 1.0 | 2.0 | 0.00 | 0.05 | 0.00 | 92 | 1012.3 |
| 20260508045046 | 54 | 310 | 1.0 | 4.0 | 0.00 | 0.05 | 0.00 | 92 | 1012.2 |
| 20260508044041 | 54 | 315 | 3.0 | 6.0 | 0.00 | 0.05 | 0.00 | 93 | 1012.3 |
| 20260508043036 | 54 | 270 | 1.0 | 4.0 | 0.00 | 0.05 | 0.00 | 93 | 1012.5 |
| 20260508042030 | 54 | 270 | 1.0 | 2.0 | 0.00 | 0.05 | 0.00 | 93 | 1012.4 |
| 20260508041025 | 54 | 270 | 2.0 | 4.0 | 0.00 | 0.05 | 0.00 | 93 | 1012.3 |
| 20260508040020 | 54 | 312 | 1.0 | 4.0 | 0.00 | 0.05 | 0.00 | 93 | 1012.3 |
| 20260508035115 | 54 | 276 | 1.0 | 4.0 | 0.00 | 0.05 | 0.00 | 93 | 1012.2 |
| 20260508034110 | 54 | 306 | 2.0 | 2.0 | 0.00 | 0.05 | 0.00 | 93 | 1011.9 |
| 20260508033105 | 54 | 293 | 1.0 | 2.0 | 0.00 | 0.05 | 0.00 | 94 | 1011.9 |
| 20260508032119 | 54 | 261 | 1.0 | 2.0 | 0.00 | 0.05 | 0.00 | 93 | 1012.2 |
| 20260508031134 | 55 | 263 | 1.0 | 2.0 | 0.00 | 0.05 | 0.00 | 93 | 1012.3 |
| 20260508030048 | 55 | 248 | 1.0 | 2.0 | 0.00 | 0.05 | 0.00 | 93 | 1012.5 |
| 20260508025043 | 55 | 263 | 2.0 | 4.0 | 0.00 | 0.05 | 0.00 | 93 | 1012.6 |
| 20260508024038 | 55 | 270 | 2.0 | 4.0 | 0.00 | 0.05 | 0.00 | 92 | 1012.5 |
| 20260508023033 | 55 | 270 | 2.0 | 4.0 | 0.00 | 0.05 | 0.00 | 92 | 1012.7 |
| 20260508022028 | 55 | 270 | 1.0 | 2.0 | 0.00 | 0.05 | 0.00 | 92 | 1012.5 |
| 20260508021043 | 55 | 293 | 2.0 | 4.0 | 0.00 | 0.05 | 0.00 | 92 | 1012.5 |
| 20260508020017 | 55 | 312 | 2.0 | 4.0 | 0.00 | 0.05 | 0.00 | 92 | 1012.6 |
| 20260508015132 | 55 | 315 | 2.0 | 6.0 | 0.00 | 0.05 | 0.00 | 93 | 1012.6 |
| 20260508014107 | 55 | 306 | 2.0 | 6.0 | 0.00 | 0.05 | 0.00 | 93 | 1012.7 |
| 20260508013101 | 56 | 302 | 2.0 | 4.0 | 0.00 | 0.05 | 0.00 | 93 | 1012.9 |
| 20260508012055 | 56 | 315 | 1.0 | 2.0 | 0.00 | 0.05 | 0.00 | 93 | 1012.9 |
| 20260508011050 | 56 | 0.0 | 2.0 | 0.00 | 0.05 | 0.00 | 93 | 1013.2 | |
| 20260508010045 | 56 | 315 | 0.0 | 2.0 | 0.00 | 0.05 | 0.00 | 93 | 1013.2 |
| 20260508005040 | 56 | 315 | 1.0 | 4.0 | 0.00 | 0.05 | 0.00 | 93 | 1013.3 |
| 20260508004035 | 56 | 0.0 | 2.0 | 0.00 | 0.05 | 0.00 | 93 | 1013.4 | |
| 20260508003030 | 56 | 315 | 1.0 | 2.0 | 0.00 | 0.05 | 0.00 | 93 | 1013.5 |
| 20260508002024 | 56 | 315 | 0.0 | 2.0 | 0.00 | 0.05 | 0.00 | 93 | 1013.6 |
| 20260508001019 | 56 | 315 | 1.0 | 2.0 | 0.00 | 0.05 | 0.00 | 93 | 1013.7 |
| 20260508000115 | 56 | 315 | 1.0 | 2.0 | 0.00 | 0.05 | 0.00 | 93 | 1013.7 |
| 20260507235110 | 56 | 315 | 2.0 | 4.0 | 0.00 | 0.05 | 0.00 | 93 | 1013.8 |
| 20260507234105 | 56 | 315 | 0.0 | 2.0 | 0.00 | 0.05 | 0.00 | 92 | 1013.8 |
| 20260507233058 | 57 | 315 | 1.0 | 2.0 | 0.00 | 0.05 | 0.00 | 92 | 1014.1 |
| 20260507232052 | 56 | 315 | 1.0 | 4.0 | 0.00 | 0.05 | 0.00 | 91 | 1014.1 |
| 20260507231107 | 57 | 338 | 0.0 | 2.0 | 0.00 | 0.05 | 0.00 | 91 | 1014.1 |
| 20260507230041 | 57 | 338 | 0.0 | 2.0 | 0.00 | 0.05 | 0.00 | 90 | 1014.1 |
| 20260507225036 | 57 | 338 | 0.0 | 2.0 | 0.00 | 0.05 | 0.00 | 89 | 1014.2 |
| 20260507224031 | 58 | 0 | 0.0 | 2.0 | 0.00 | 0.05 | 0.00 | 89 | 1014.2 |
| 20260507223025 | 58 | 0.0 | 2.0 | 0.00 | 0.05 | 0.00 | 88 | 1014.2 | |
| 20260507222019 | 58 | 0.0 | 2.0 | 0.00 | 0.05 | 0.00 | 87 | 1014.1 | |
| 20260507221115 | 58 | 0.0 | 0.0 | 0.00 | 0.05 | 0.00 | 88 | 1014.2 | |
| 20260507220109 | 58 | 23 | 0.0 | 2.0 | 0.00 | 0.05 | 0.00 | 88 | 1014.0 |
| 20260507215124 | 58 | 0.0 | 2.0 | 0.00 | 0.05 | 0.05 | 88 | 1013.9 | |
| 20260507214057 | 58 | 23 | 1.0 | 2.0 | 0.00 | 0.05 | 0.05 | 87 | 1013.9 |
| 20260507213112 | 58 | 23 | 2.0 | 4.0 | 0.00 | 0.05 | 0.05 | 86 | 1013.9 |
| 20260507212047 | 59 | 41 | 2.0 | 4.0 | 0.00 | 0.05 | 0.05 | 84 | 1013.8 |
| 20260507211103 | 59 | 45 | 2.0 | 4.0 | 0.00 | 0.05 | 0.05 | 84 | 1013.5 |
| 20260507210037 | 59 | 45 | 1.0 | 4.0 | 0.00 | 0.05 | 0.05 | 84 | 1013.5 |
| 20260507205032 | 59 | 63 | 4.0 | 6.0 | 0.00 | 0.05 | 0.05 | 85 | 1013.4 |
| 20260507204027 | 60 | 23 | 1.0 | 2.0 | 0.00 | 0.05 | 0.05 | 84 | 1013.5 |
| 20260507203022 | 60 | 23 | 2.0 | 4.0 | 0.00 | 0.05 | 0.05 | 84 | 1013.4 |
| 20260507202016 | 60 | 50 | 1.0 | 4.0 | 0.00 | 0.05 | 0.05 | 83 | 1013.3 |
| 20260507201112 | 61 | 48 | 3.0 | 6.0 | 0.00 | 0.05 | 0.05 | 83 | 1013.0 |
| 20260507200107 | 61 | 50 | 3.0 | 7.0 | 0.00 | 0.05 | 0.05 | 82 | 1013.1 |
| 20260507195056 | 61 | 77 | 4.0 | 8.0 | 0.00 | 0.05 | 0.05 | 81 | 1013.1 |
| 20260507194051 | 61 | 53 | 3.0 | 4.0 | 0.00 | 0.05 | 0.05 | 80 | 1012.8 |
| 20260507193041 | 61 | 90 | 2.0 | 4.0 | 0.00 | 0.05 | 0.05 | 79 | 1012.5 |
| 20260507192032 | 62 | 78 | 3.0 | 4.0 | 0.00 | 0.05 | 0.05 | 80 | 1012.3 |
| 20260507191026 | 62 | 82 | 3.0 | 6.0 | 0.00 | 0.05 | 0.05 | 79 | 1012.3 |
| 20260507190017 | 62 | 53 | 2.0 | 6.0 | 0.00 | 0.05 | 0.05 | 78 | 1012.2 |
| 20260507185106 | 63 | 68 | 3.0 | 6.0 | 0.00 | 0.05 | 0.05 | 76 | 1012.1 |
| 20260507184055 | 63 | 20 | 2.0 | 8.0 | 0.00 | 0.05 | 0.05 | 73 | 1011.9 |
| 20260507183050 | 64 | 15 | 1.0 | 4.0 | 0.00 | 0.05 | 0.05 | 73 | 1011.8 |
| 20260507182040 | 63 | 8 | 3.0 | 8.0 | 0.00 | 0.05 | 0.05 | 73 | 1011.6 |
| 20260507181031 | 63 | 12 | 2.0 | 4.0 | 0.00 | 0.05 | 0.05 | 73 | 1011.5 |
| 20260507180026 | 63 | 43 | 3.0 | 6.0 | 0.00 | 0.05 | 0.05 | 72 | 1011.5 |
| 20260507175016 | 64 | 27 | 1.0 | 4.0 | 0.00 | 0.05 | 0.05 | 71 | 1011.4 |
| 20260507174106 | 65 | 296 | 2.0 | 4.0 | 0.00 | 0.05 | 0.05 | 71 | 1011.5 |
| 20260507173056 | 65 | 301 | 5.0 | 11.0 | 0.00 | 0.05 | 0.05 | 70 | 1011.4 |
| 20260507172051 | 64 | 315 | 4.0 | 11.0 | 0.00 | 0.05 | 0.05 | 72 | 1011.6 |
| 20260507171040 | 63 | 303 | 3.0 | 8.0 | 0.00 | 0.05 | 0.05 | 79 | 1011.4 |
| 20260507170050 | 63 | 302 | 2.0 | 8.0 | 0.00 | 0.05 | 0.05 | 77 | 1011.3 |
| 20260507165019 | 64 | 294 | 2.0 | 6.0 | 0.00 | 0.05 | 0.05 | 78 | 1011.3 |
| 20260507164114 | 63 | 304 | 2.0 | 7.0 | 0.00 | 0.05 | 0.05 | 79 | 1011.1 |
| 20260507163102 | 62 | 310 | 6.0 | 11.0 | 0.00 | 0.05 | 0.05 | 79 | 1011.2 |
| 20260507162051 | 62 | 297 | 4.0 | 9.0 | 0.00 | 0.05 | 0.05 | 77 | 1011.0 |
| 20260507161041 | 62 | 310 | 5.0 | 11.0 | 0.00 | 0.05 | 0.05 | 78 | 1010.9 |
| 20260507160030 | 63 | 315 | 6.0 | 11.0 | 0.00 | 0.05 | 0.05 | 77 | 1010.8 |
| 20260507155019 | 62 | 304 | 7.0 | 14.0 | 0.00 | 0.05 | 0.05 | 80 | 1010.9 |
| 20260507154114 | 62 | 303 | 5.0 | 9.0 | 0.00 | 0.05 | 0.05 | 82 | 1010.9 |
| 20260507153103 | 62 | 310 | 5.0 | 11.0 | 0.00 | 0.05 | 0.05 | 81 | 1011.1 |
| 20260507152053 | 63 | 311 | 3.0 | 7.0 | 0.00 | 0.05 | 0.05 | 79 | 1010.9 |
| 20260507151044 | 63 | 322 | 4.0 | 7.0 | 0.00 | 0.05 | 0.05 | 77 | 1011.0 |
| 20260507150039 | 63 | 293 | 7.0 | 11.0 | 0.00 | 0.05 | 0.05 | 79 | 1011.0 |
| 20260507145027 | 0 | 0.0 | 0.0 | 0.00 | 0.05 | 0.05 | 1010.8 | ||
| 20260507144016 | 0 | 0.0 | 0.0 | 0.00 | 0.05 | 0.05 | 1010.8 | ||
| 20260507143106 | 64 | 23 | 3.0 | 4.0 | 0.00 | 0.05 | 0.05 | 85 | 1011.0 |
| 20260507142055 | 64 | 19 | 3.0 | 4.0 | 0.00 | 0.05 | 0.05 | 85 | 1010.9 |
| 20260507141050 | 64 | 310 | 3.0 | 6.0 | 0.00 | 0.05 | 0.05 | 87 | 1010.8 |
| 20260507140040 | 0 | 0.0 | 0.0 | 0.00 | 0.05 | 0.05 | 1010.9 | ||
| 20260507135031 | 63 | 180 | 3.0 | 4.0 | 0.00 | 0.05 | 0.05 | 88 | 1010.9 |
| 20260507134026 | 63 | 215 | 3.0 | 6.0 | 0.01 | 0.05 | 0.05 | 88 | 1011.0 |
| 20260507133016 | 64 | 229 | 4.0 | 7.0 | 0.02 | 0.05 | 0.05 | 88 | 1010.9 |
| 20260507132106 | 65 | 203 | 4.0 | 6.0 | 0.02 | 0.05 | 0.05 | 86 | 1010.9 |
| 20260507131056 | 65 | 248 | 2.0 | 4.0 | 0.02 | 0.05 | 0.05 | 88 | 1011.0 |
| 20260507130051 | 65 | 248 | 2.0 | 4.0 | 0.02 | 0.05 | 0.05 | 88 | 1011.1 |
| 20260507125040 | 64 | 225 | 0.0 | 2.0 | 0.02 | 0.05 | 0.05 | 88 | 1011.2 |
| 20260507124030 | 64 | 224 | 1.0 | 2.0 | 0.01 | 0.04 | 0.04 | 88 | 1011.3 |
| 20260507123019 | 64 | 303 | 3.0 | 7.0 | 0.00 | 0.02 | 0.02 | 90 | 1011.3 |
| 20260507122114 | 64 | 309 | 3.0 | 6.0 | 0.00 | 0.02 | 0.02 | 88 | 1011.6 |
| 20260507121125 | 65 | 253 | 3.0 | 8.0 | 0.00 | 0.02 | 0.02 | 87 | 1011.5 |
| 20260507120115 | 66 | 102 | 3.0 | 7.0 | 0.00 | 0.02 | 0.02 | 79 | 1011.5 |
| 20260507115050 | 66 | 113 | 4.0 | 7.0 | 0.01 | 0.02 | 0.02 | 77 | 1011.6 |
| 20260507114041 | 67 | 87 | 4.0 | 7.0 | 0.01 | 0.02 | 0.02 | 74 | 1011.5 |
| 20260507113031 | 66 | 73 | 4.0 | 9.0 | 0.02 | 0.02 | 0.02 | 76 | 1011.7 |
| 20260507112026 | 66 | 82 | 4.0 | 11.0 | 0.02 | 0.02 | 0.02 | 76 | 1011.8 |
| 20260507111037 | 66 | 69 | 3.0 | 7.0 | 0.02 | 0.02 | 0.02 | 78 | 1011.8 |
| 20260507110107 | 65 | 73 | 3.0 | 6.0 | 0.02 | 0.02 | 0.02 | 80 | 1012.0 |
| 20260507105136 | 65 | 90 | 2.0 | 2.0 | 0.01 | 0.01 | 0.01 | 80 | 1012.0 |
| 20260507104050 | 65 | 80 | 3.0 | 4.0 | 0.01 | 0.01 | 0.01 | 78 | 1012.0 |
| 20260507103041 | 66 | 75 | 5.0 | 9.0 | 0.00 | 0.00 | 0.00 | 74 | 1011.9 |
| 20260507102031 | 66 | 74 | 5.0 | 11.0 | 0.00 | 0.00 | 0.00 | 72 | 1011.8 |
| 20260507101046 | 66 | 64 | 5.0 | 11.0 | 0.00 | 0.00 | 0.00 | 71 | 1011.7 |
| 20260507100016 | 67 | 68 | 8.0 | 15.0 | 0.00 | 0.00 | 0.00 | 70 | 1011.6 |
| 20260507095126 | 67 | 50 | 6.0 | 11.0 | 0.00 | 0.00 | 0.00 | 71 | 1011.6 |
| 20260507094055 | 67 | 64 | 6.0 | 9.0 | 0.00 | 0.00 | 0.00 | 72 | 1011.8 |
| 20260507093050 | 66 | 71 | 2.0 | 6.0 | 0.00 | 0.00 | 0.00 | 77 | 1011.8 |
| 20260507092040 | 65 | 103 | 2.0 | 4.0 | 0.00 | 0.00 | 0.00 | 80 | 1012.0 |
| 20260507091051 | 65 | 86 | 2.0 | 4.0 | 0.00 | 0.00 | 0.00 | 81 | 1012.0 |
| 20260507090026 | 65 | 90 | 2.0 | 4.0 | 0.00 | 0.00 | 0.00 | 81 | 1012.0 |
| 20260507085017 | 64 | 82 | 1.0 | 4.0 | 0.00 | 0.00 | 0.00 | 82 | 1011.9 |
| 20260507084106 | 65 | 0.0 | 2.0 | 0.00 | 0.00 | 0.00 | 83 | 1012.0 | |
| 20260507083056 | 65 | 0.0 | 2.0 | 0.00 | 0.00 | 0.00 | 83 | 1012.0 | |
| 20260507082111 | 64 | 90 | 1.0 | 2.0 | 0.00 | 0.00 | 0.00 | 82 | 1012.2 |
| 20260507081101 | 64 | 113 | 1.0 | 2.0 | 0.00 | 0.00 | 0.00 | 80 | 1012.1 |